GLD1028 SBTF-SBPV

Flight info

Callsign GLD1028
Flight time N/A
Altitude 22000
Route DCT TF008 DCT LIVOT DCT DARIO DCT EGLER DCT OPKUM DCT PV003 DCT BUVUX DCT
Aircraft PC12/L-SDFGIRY/S

Departure

Time 2026-04-24 20:08
Airport Tefé Airport (SBTF)

Arrival

Time N/A
Airport Governador Jorge Teixeira de Oliveira International Airport (SBPV)
Time Latitude Longitude Altitude Speed Heading
2026-04-24 19:59 -3.37982 -64.72388 177 ft 0 kts 22°
2026-04-24 20:01 -3.37972 -64.72386 177 ft 4 kts 350°
2026-04-24 20:01 -3.37975 -64.72409 177 ft 6 kts 182°
2026-04-24 20:01 -3.38035 -64.72405 176 ft 10 kts 192°
2026-04-24 20:02 -3.38077 -64.72436 175 ft 12 kts 225°
2026-04-24 20:02 -3.38117 -64.72478 174 ft 0 kts 228°
2026-04-24 20:03 -3.38118 -64.72478 174 ft 1 kts 228°
2026-04-24 20:03 -3.38146 -64.72518 174 ft 11 kts 264°
2026-04-24 20:03 -3.38107 -64.72581 175 ft 11 kts 318°
2026-04-24 20:04 -3.38055 -64.72628 177 ft 10 kts 318°
2026-04-24 20:04 -3.38006 -64.72673 177 ft 10 kts 319°
2026-04-24 20:04 -3.37951 -64.72719 176 ft 11 kts 320°
2026-04-24 20:04 -3.37892 -64.72774 175 ft 12 kts 318°
2026-04-24 20:05 -3.37831 -64.72828 175 ft 11 kts 318°
2026-04-24 20:05 -3.37774 -64.72879 176 ft 11 kts 318°
2026-04-24 20:05 -3.37720 -64.72928 176 ft 11 kts 318°
2026-04-24 20:05 -3.37662 -64.72980 175 ft 11 kts 318°
2026-04-24 20:06 -3.37602 -64.73024 175 ft 10 kts 343°
2026-04-24 20:06 -3.37561 -64.73062 177 ft 6 kts 227°
2026-04-24 20:06 -3.37574 -64.73060 176 ft 7 kts 134°
2026-04-24 20:06 -3.37582 -64.73051 176 ft 0 kts 133°
2026-04-24 20:07 -3.37602 -64.73032 176 ft 20 kts 137°
2026-04-24 20:07 -3.37979 -64.72686 177 ft 86 kts 140°
2026-04-24 20:07 -3.38500 -64.72240 303 ft 102 kts 140°
2026-04-24 20:07 -3.39038 -64.71806 644 ft 98 kts 145°
2026-04-24 20:08 -3.39507 -64.71248 818 ft 117 kts 123°
2026-04-24 20:08 -3.40002 -64.70486 993 ft 145 kts 124°
2026-04-24 20:08 -3.40606 -64.69579 1254 ft 162 kts 124°
2026-04-24 20:08 -3.41227 -64.68650 1842 ft 160 kts 123°
2026-04-24 20:09 -3.41857 -64.67722 2340 ft 162 kts 124°
2026-04-24 20:09 -3.42492 -64.66788 2830 ft 163 kts 123°
2026-04-24 20:09 -3.43134 -64.65847 3328 ft 164 kts 123°
2026-04-24 20:09 -3.43788 -64.64901 3809 ft 166 kts 124°
2026-04-24 20:10 -3.44436 -64.63957 4297 ft 167 kts 123°
2026-04-24 20:10 -3.45098 -64.62996 4802 ft 168 kts 124°
2026-04-24 20:10 -3.45765 -64.62028 5296 ft 170 kts 124°
2026-04-24 20:10 -3.46441 -64.61054 5775 ft 171 kts 123°
2026-04-24 20:11 -3.47137 -64.60084 6247 ft 172 kts 130°
2026-04-24 20:11 -3.48199 -64.59543 6684 ft 178 kts 174°
2026-04-24 20:11 -3.49388 -64.59849 7112 ft 180 kts 207°
2026-04-24 20:11 -3.50534 -64.60378 7527 ft 182 kts 199°
2026-04-24 20:12 -3.51763 -64.60534 7942 ft 182 kts 172°
2026-04-24 20:12 -3.53045 -64.60382 8361 ft 184 kts 174°
2026-04-24 20:12 -3.54306 -64.60268 8806 ft 185 kts 174°
2026-04-24 20:12 -3.55592 -64.60149 9245 ft 187 kts 174°
2026-04-24 20:13 -3.56888 -64.60023 9692 ft 188 kts 174°
2026-04-24 20:13 -3.58196 -64.59894 10083 ft 190 kts 174°
2026-04-24 20:13 -3.59514 -64.59764 10489 ft 190 kts 174°
2026-04-24 20:13 -3.60834 -64.59635 10889 ft 191 kts 173°
2026-04-24 20:14 -3.62161 -64.59505 11293 ft 192 kts 173°
2026-04-24 20:14 -3.63478 -64.59376 11689 ft 193 kts 173°
2026-04-24 20:14 -3.64820 -64.59245 12088 ft 194 kts 173°
2026-04-24 20:14 -3.66171 -64.59112 12490 ft 196 kts 173°
2026-04-24 20:15 -3.67528 -64.58979 12893 ft 197 kts 173°
2026-04-24 20:15 -3.68897 -64.58845 13290 ft 198 kts 173°
2026-04-24 20:15 -3.70272 -64.58710 13683 ft 199 kts 173°
2026-04-24 20:15 -3.71657 -64.58575 14062 ft 200 kts 172°
2026-04-24 20:16 -3.73047 -64.58438 14425 ft 201 kts 172°
2026-04-24 20:16 -3.74443 -64.58302 14770 ft 202 kts 172°
2026-04-24 20:16 -3.75822 -64.58167 15104 ft 202 kts 172°
2026-04-24 20:16 -3.77228 -64.58029 15442 ft 203 kts 172°
2026-04-24 20:17 -3.78636 -64.57891 15791 ft 204 kts 172°
2026-04-24 20:17 -3.81676 -64.57592 15848 ft 233 kts 172°
2026-04-24 20:17 -3.83327 -64.57432 15852 ft 243 kts 173°
2026-04-24 20:18 -3.84450 -64.57323 15854 ft 248 kts 173°
2026-04-24 20:18 -3.86780 -64.57096 15856 ft 254 kts 173°
2026-04-24 20:18 -3.88520 -64.56897 15857 ft 256 kts 168°
2026-04-24 20:18 -3.90282 -64.56586 15859 ft 259 kts 168°
2026-04-24 20:19 -3.92064 -64.56287 15860 ft 260 kts 168°
2026-04-24 20:19 -3.93856 -64.55991 15860 ft 262 kts 168°
2026-04-24 20:19 -3.95653 -64.55688 15860 ft 262 kts 168°
2026-04-24 20:19 -3.97452 -64.55384 15860 ft 262 kts 168°
2026-04-24 20:20 -3.99253 -64.55080 15860 ft 262 kts 168°
2026-04-24 20:20 -4.01054 -64.54777 15863 ft 263 kts 168°
2026-04-24 20:20 -4.02833 -64.54477 15863 ft 263 kts 168°
2026-04-24 20:20 -4.04658 -64.54169 15863 ft 262 kts 168°
2026-04-24 20:21 -4.06433 -64.53870 15863 ft 262 kts 168°
2026-04-24 20:21 -4.08231 -64.53567 15863 ft 262 kts 168°
2026-04-24 20:21 -4.10034 -64.53263 15863 ft 262 kts 168°
2026-04-24 20:21 -4.11833 -64.52960 15863 ft 262 kts 168°
2026-04-24 20:22 -4.13632 -64.52657 15861 ft 262 kts 168°
2026-04-24 20:22 -4.15430 -64.52354 15861 ft 262 kts 168°
2026-04-24 20:22 -4.17228 -64.52051 15861 ft 262 kts 168°
2026-04-24 20:22 -4.19007 -64.51751 15862 ft 263 kts 168°
2026-04-24 20:23 -4.20811 -64.51447 15861 ft 263 kts 168°
2026-04-24 20:23 -4.22617 -64.51142 15860 ft 264 kts 168°
2026-04-24 20:23 -4.24427 -64.50837 15860 ft 264 kts 168°
2026-04-24 20:23 -4.26234 -64.50532 15860 ft 264 kts 168°
2026-04-24 20:24 -4.27436 -64.50330 15863 ft 264 kts 168°
2026-04-24 20:24 -4.29858 -64.49921 15863 ft 264 kts 168°
2026-04-24 20:24 -4.31665 -64.49616 15863 ft 264 kts 168°
2026-04-24 20:24 -4.33454 -64.49315 15863 ft 264 kts 168°
2026-04-24 20:25 -4.35266 -64.49009 15862 ft 264 kts 168°
2026-04-24 20:25 -4.37046 -64.48614 15862 ft 262 kts 163°
2026-04-24 20:25 -4.38816 -64.48172 15862 ft 262 kts 164°
2026-04-24 20:25 -4.40590 -64.47738 15862 ft 263 kts 164°
2026-04-24 20:26 -4.42364 -64.47303 15865 ft 263 kts 164°
2026-04-24 20:26 -4.44140 -64.46864 15865 ft 263 kts 163°
2026-04-24 20:26 -4.45916 -64.46426 15865 ft 263 kts 164°
2026-04-24 20:26 -4.47692 -64.45987 15865 ft 263 kts 164°
2026-04-24 20:27 -4.49442 -64.45556 15864 ft 263 kts 164°
2026-04-24 20:27 -4.51222 -64.45117 15863 ft 263 kts 164°
2026-04-24 20:27 -4.52996 -64.44679 15865 ft 263 kts 164°
2026-04-24 20:27 -4.54777 -64.44240 15869 ft 264 kts 164°
2026-04-24 20:28 -4.56557 -64.43800 15869 ft 263 kts 164°
2026-04-24 20:28 -4.58337 -64.43361 15869 ft 263 kts 164°
2026-04-24 20:28 -4.60114 -64.42923 15869 ft 263 kts 164°
2026-04-24 20:28 -4.61892 -64.42484 15869 ft 263 kts 164°
2026-04-24 20:29 -4.63071 -64.42193 15872 ft 263 kts 164°
2026-04-24 20:29 -4.65429 -64.41611 15868 ft 264 kts 164°
2026-04-24 20:29 -4.67208 -64.41172 15869 ft 263 kts 164°
2026-04-24 20:29 -4.68989 -64.40732 15868 ft 263 kts 164°
2026-04-24 20:30 -4.70770 -64.40293 15865 ft 263 kts 164°
2026-04-24 20:30 -4.72548 -64.39854 15865 ft 263 kts 164°
2026-04-24 20:30 -4.74325 -64.39415 15865 ft 263 kts 163°
2026-04-24 20:30 -4.76106 -64.38975 15865 ft 263 kts 164°
2026-04-24 20:31 -4.77858 -64.38543 15867 ft 263 kts 164°
2026-04-24 20:31 -4.79638 -64.38103 15867 ft 263 kts 164°
2026-04-24 20:31 -4.81418 -64.37664 15870 ft 263 kts 164°
2026-04-24 20:31 -4.83197 -64.37224 15870 ft 263 kts 164°
2026-04-24 20:32 -4.84976 -64.36785 15870 ft 263 kts 164°
2026-04-24 20:32 -4.86760 -64.36345 15870 ft 264 kts 164°
2026-04-24 20:32 -4.88542 -64.35904 15874 ft 264 kts 164°
2026-04-24 20:32 -4.90330 -64.35463 15870 ft 265 kts 164°
2026-04-24 20:33 -4.92099 -64.35026 15869 ft 265 kts 164°
2026-04-24 20:33 -4.93883 -64.34585 15869 ft 264 kts 164°
2026-04-24 20:33 -4.95670 -64.34144 15874 ft 264 kts 164°
2026-04-24 20:33 -4.97450 -64.33704 15874 ft 264 kts 164°
2026-04-24 20:34 -4.99234 -64.33263 15873 ft 264 kts 164°
2026-04-24 20:34 -5.01012 -64.32824 15872 ft 263 kts 164°
2026-04-24 20:34 -5.02792 -64.32384 15872 ft 263 kts 164°
2026-04-24 20:34 -5.04571 -64.31944 15872 ft 263 kts 164°
2026-04-24 20:35 -5.06326 -64.31511 15870 ft 263 kts 164°
2026-04-24 20:35 -5.08104 -64.31071 15870 ft 263 kts 164°
2026-04-24 20:35 -5.09885 -64.30631 15876 ft 263 kts 164°
2026-04-24 20:35 -5.11663 -64.30191 15876 ft 264 kts 164°
2026-04-24 20:36 -5.13446 -64.29751 15875 ft 264 kts 164°
2026-04-24 20:36 -5.15226 -64.29311 15872 ft 263 kts 164°
2026-04-24 20:36 -5.17006 -64.28871 15872 ft 263 kts 164°
2026-04-24 20:36 -5.18784 -64.28431 15873 ft 263 kts 164°
2026-04-24 20:37 -5.20563 -64.27991 15872 ft 263 kts 164°
2026-04-24 20:37 -5.22320 -64.27557 15875 ft 263 kts 164°
2026-04-24 20:37 -5.24099 -64.27117 15875 ft 263 kts 164°
2026-04-24 20:37 -5.25877 -64.26677 15875 ft 263 kts 164°
2026-04-24 20:38 -5.27659 -64.26237 15875 ft 263 kts 164°
2026-04-24 20:38 -5.29436 -64.25797 15875 ft 263 kts 164°
2026-04-24 20:38 -5.31234 -64.25524 15871 ft 265 kts 177°
2026-04-24 20:38 -5.33077 -64.25536 15872 ft 266 kts 178°
2026-04-24 20:39 -5.34929 -64.25550 15874 ft 266 kts 178°
2026-04-24 20:39 -5.36761 -64.25556 15874 ft 267 kts 178°
2026-04-24 20:39 -5.38616 -64.25562 15874 ft 267 kts 178°
2026-04-24 20:39 -5.40475 -64.25569 15875 ft 267 kts 178°
2026-04-24 20:40 -5.42332 -64.25578 15874 ft 267 kts 178°
2026-04-24 20:40 -5.44193 -64.25585 15874 ft 267 kts 178°
2026-04-24 20:40 -5.46052 -64.25593 15874 ft 267 kts 178°
2026-04-24 20:40 -5.47909 -64.25600 15874 ft 267 kts 178°
2026-04-24 20:41 -5.49764 -64.25608 15869 ft 267 kts 178°
2026-04-24 20:41 -5.51622 -64.25616 15869 ft 267 kts 178°
2026-04-24 20:41 -5.53456 -64.25623 15870 ft 267 kts 178°
2026-04-24 20:41 -5.55315 -64.25631 15870 ft 267 kts 178°
2026-04-24 20:42 -5.57178 -64.25638 15872 ft 267 kts 178°
2026-04-24 20:42 -5.57806 -64.25641 15872 ft 267 kts 178°